Time,TemperatureF,DewpointF,PressureIn,WindDirection,WindDirectionDegrees,WindSpeedMPH,WindSpeedGustMPH,Humidity,HourlyPrecipIn,Conditions,Clouds,dailyrainin,SoftwareType,DateUTC
2013-03-05 00:01:00,32.0,32.0,-100.00,NNW,340,4.0,6.0,99,2.42,,,-99.99,,2013-03-05 06:01:00,
2013-03-05 00:11:00,32.0,32.0,-100.00,West,260,4.0,7.0,99,0.45,,,-99.99,,2013-03-05 06:11:00,
2013-03-05 00:22:00,32.0,32.0,-100.00,WNW,300,4.0,7.0,99,1.33,,,-99.99,,2013-03-05 06:22:00,
2013-03-05 00:32:00,32.0,32.0,-100.00,NNW,345,5.0,7.0,99,0.20,,,-99.99,,2013-03-05 06:32:00,
2013-03-05 00:41:00,32.0,32.0,-100.00,West,270,6.0,9.0,99,1.90,,,-99.99,,2013-03-05 06:41:00,
2013-03-05 00:52:00,32.0,32.0,-100.00,West,260,6.0,9.0,99,0.40,,,-99.99,,2013-03-05 06:52:00,
2013-03-05 01:01:00,32.0,32.0,-100.00,West,260,6.0,9.0,99,0.40,,,-99.99,,2013-03-05 07:01:00,
2013-03-05 01:11:00,32.0,32.0,-100.00,NNW,340,6.0,9.0,99,0.17,,,-99.99,,2013-03-05 07:11:00,
2013-03-05 01:21:00,32.0,32.0,-100.00,SSW,210,6.0,8.0,99,0.99,,,-99.99,,2013-03-05 07:21:00,
2013-03-05 01:31:00,32.0,32.0,-100.00,WSW,250,7.0,12.0,99,0.10,,,-99.99,,2013-03-05 07:31:00,
2013-03-05 01:41:00,32.0,32.0,-100.00,West,280,7.0,11.0,99,1.13,,,-99.99,,2013-03-05 07:41:00,
2013-03-05 01:51:00,32.0,32.0,-100.00,West,270,8.0,12.0,99,0.00,,,-99.99,,2013-03-05 07:51:00,
2013-03-05 02:02:00,32.0,32.0,-100.00,West,270,8.0,12.0,99,0.00,,,-99.99,,2013-03-05 08:02:00,
2013-03-05 02:11:00,32.0,32.0,-100.00,WSW,245,7.0,10.0,99,0.00,,,-99.99,,2013-03-05 08:11:00,
2013-03-05 02:21:00,32.0,32.0,-100.00,NW,320,7.0,11.0,99,0.00,,,-99.99,,2013-03-05 08:21:00,
2013-03-05 02:31:00,32.0,32.0,-100.00,SW,230,8.0,12.0,99,0.00,,,-99.99,,2013-03-05 08:31:00,
2013-03-05 02:41:00,32.0,32.0,-100.00,SSW,205,13.0,19.0,99,0.00,,,-99.99,,2013-03-05 08:41:00,
2013-03-05 02:52:00,32.0,29.0,-100.00,South,190,14.0,24.0,89,1.33,,,-99.99,,2013-03-05 08:52:00,
2013-03-05 03:01:00,32.0,29.0,-100.00,South,190,14.0,24.0,89,1.33,,,-99.99,,2013-03-05 09:01:00,
2013-03-05 03:11:00,32.0,28.0,-100.00,SW,225,14.0,19.0,86,0.00,,,-99.99,,2013-03-05 09:11:00,
2013-03-05 03:21:00,32.0,28.0,-100.00,SW,220,12.0,19.0,85,0.00,,,-99.99,,2013-03-05 09:21:00,
2013-03-05 03:31:00,32.0,28.0,-100.00,SSW,210,12.0,17.0,84,0.00,,,-99.99,,2013-03-05 09:31:00,
2013-03-05 03:42:00,31.0,25.0,-100.00,SW,220,13.0,26.0,76,0.00,,,-99.99,,2013-03-05 09:42:00,
2013-03-05 03:52:00,31.0,24.0,-100.00,SSW,210,11.0,20.0,76,0.00,,,-99.99,,2013-03-05 09:52:00,
2013-03-05 04:01:00,31.0,24.0,-100.00,SSW,210,11.0,20.0,76,0.00,,,-99.99,,2013-03-05 10:01:00,
2013-03-05 04:11:00,30.0,24.0,-100.00,SW,215,12.0,21.0,75,0.00,,,-99.99,,2013-03-05 10:11:00,
2013-03-05 04:21:00,30.0,23.0,-100.00,SW,220,13.0,21.0,75,0.00,,,-99.99,,2013-03-05 10:21:00,
2013-03-05 04:32:00,30.0,24.0,-100.00,West,260,12.0,21.0,75,0.00,,,-99.99,,2013-03-05 10:32:00,
2013-03-05 04:42:00,30.0,23.0,-100.00,SW,225,16.0,24.0,73,0.00,,,-99.99,,2013-03-05 10:42:00,
2013-03-05 04:51:00,30.0,23.0,-100.00,SW,230,12.0,19.0,75,0.00,,,-99.99,,2013-03-05 10:51:00,
2013-03-05 05:01:00,30.0,23.0,-100.00,SW,230,12.0,19.0,75,0.00,,,-99.99,,2013-03-05 11:01:00,
2013-03-05 05:11:00,29.0,22.0,-100.00,SSW,200,15.0,22.0,73,0.00,,,-99.99,,2013-03-05 11:11:00,
2013-03-05 05:22:00,29.0,22.0,-100.00,SW,235,12.0,22.0,73,0.00,,,-99.99,,2013-03-05 11:22:00,
2013-03-05 05:32:00,29.0,21.0,-100.00,SSW,195,15.0,24.0,73,0.00,,,-99.99,,2013-03-05 11:32:00,
2013-03-05 05:42:00,28.0,21.0,-100.00,SW,225,14.0,22.0,73,0.00,,,-99.99,,2013-03-05 11:42:00,
2013-03-05 05:52:00,28.0,21.0,-100.00,SSW,195,12.0,19.0,73,0.00,,,-99.99,,2013-03-05 11:52:00,
2013-03-05 06:02:00,28.0,21.0,-100.00,SSW,195,12.0,19.0,73,0.00,,,-99.99,,2013-03-05 12:02:00,
2013-03-05 06:11:00,27.0,20.0,-100.00,SSW,205,10.0,17.0,74,0.00,,,-99.99,,2013-03-05 12:11:00,
2013-03-05 06:22:00,27.0,20.0,-100.00,South,190,12.0,17.0,74,0.00,,,-99.99,,2013-03-05 12:22:00,
2013-03-05 06:32:00,27.0,20.0,-100.00,SW,220,9.0,17.0,74,0.00,,,-99.99,,2013-03-05 12:32:00,
2013-03-05 06:42:00,27.0,20.0,-100.00,West,270,8.0,14.0,76,0.00,,,-99.99,,2013-03-05 12:42:00,
2013-03-05 06:52:00,27.0,20.0,-100.00,SSW,205,11.0,17.0,76,0.00,,,-99.99,,2013-03-05 12:52:00,
2013-03-05 07:02:00,27.0,20.0,-100.00,SSW,205,11.0,17.0,76,0.00,,,-99.99,,2013-03-05 13:02:00,
2013-03-05 07:11:00,27.0,20.0,-100.00,SSW,210,11.0,21.0,75,0.00,,,-99.99,,2013-03-05 13:11:00,
2013-03-05 07:21:00,26.0,20.0,-100.00,SW,235,10.0,17.0,75,0.00,,,-99.99,,2013-03-05 13:21:00,
2013-03-05 07:32:00,26.0,19.0,-100.00,South,175,10.0,16.0,74,0.00,,,-99.99,,2013-03-05 13:32:00,
2013-03-05 07:42:00,26.0,18.0,-100.00,South,185,11.0,18.0,71,0.00,,,-99.99,,2013-03-05 13:42:00,
2013-03-05 07:52:00,27.0,18.0,-100.00,SW,225,11.0,19.0,69,0.00,,,-99.99,,2013-03-05 13:52:00,
2013-03-05 08:02:00,27.0,18.0,-100.00,SW,225,11.0,19.0,69,0.00,,,-99.99,,2013-03-05 14:02:00,
2013-03-05 08:11:00,27.0,19.0,-100.00,South,175,12.0,18.0,69,0.00,,,-99.99,,2013-03-05 14:11:00,
2013-03-05 08:21:00,28.0,19.0,-100.00,SW,220,14.0,22.0,69,0.00,,,-99.99,,2013-03-05 14:21:00,
2013-03-05 08:32:00,27.0,19.0,-100.00,SSW,210,12.0,17.0,69,0.00,,,-99.99,,2013-03-05 14:32:00,
2013-03-05 08:42:00,28.0,19.0,-100.00,West,260,10.0,17.0,69,0.00,,,-99.99,,2013-03-05 14:42:00,
2013-03-05 08:52:00,28.0,19.0,-100.00,South,175,16.0,22.0,70,0.00,,,-99.99,,2013-03-05 14:52:00,
2013-03-05 09:01:00,28.0,19.0,-100.00,South,175,16.0,22.0,70,0.00,,,-99.99,,2013-03-05 15:01:00,
2013-03-05 09:11:00,28.0,20.0,-100.00,South,175,9.0,15.0,71,0.00,,,-99.99,,2013-03-05 15:11:00,
2013-03-05 09:21:00,28.0,20.0,-100.00,West,280,11.0,21.0,72,0.00,,,-99.99,,2013-03-05 15:21:00,
2013-03-05 09:32:00,28.0,21.0,-100.00,West,265,12.0,19.0,72,0.00,,,-99.99,,2013-03-05 15:32:00,
2013-03-05 09:42:00,28.0,21.0,-100.00,SW,235,9.0,17.0,73,0.00,,,-99.99,,2013-03-05 15:42:00,
2013-03-05 09:51:00,28.0,21.0,-100.00,West,270,12.0,19.0,74,0.17,,,-99.99,,2013-03-05 15:51:00,
2013-03-05 10:01:00,28.0,21.0,-100.00,West,270,12.0,19.0,74,0.17,,,-99.99,,2013-03-05 16:01:00,
2013-03-05 10:11:00,29.0,22.0,-100.00,West,270,15.0,19.0,75,2.30,,,-99.99,,2013-03-05 16:11:00,
2013-03-05 10:21:00,29.0,23.0,-100.00,West,280,10.0,19.0,78,3.51,,,-99.99,,2013-03-05 16:21:00,
2013-03-05 10:32:00,29.0,23.0,-100.00,West,275,16.0,20.0,79,0.48,,,-99.99,,2013-03-05 16:32:00,
2013-03-05 10:42:00,29.0,24.0,-100.00,West,280,12.0,20.0,79,0.34,,,-99.99,,2013-03-05 16:42:00,
2013-03-05 10:51:00,30.0,24.0,-100.00,West,270,12.0,17.0,79,0.48,,,-99.99,,2013-03-05 16:51:00,
2013-03-05 11:01:00,30.0,24.0,-100.00,West,270,12.0,17.0,79,0.48,,,-99.99,,2013-03-05 17:01:00,
2013-03-05 11:11:00,29.0,25.0,-100.00,West,275,8.0,17.0,84,4.83,,,-99.99,,2013-03-05 17:11:00,
2013-03-05 11:21:00,29.0,25.0,-100.00,South,175,9.0,14.0,86,4.48,,,-99.99,,2013-03-05 17:21:00,
2013-03-05 11:32:00,29.0,26.0,-100.00,South,180,9.0,13.0,89,0.96,,,-99.99,,2013-03-05 17:32:00,
2013-03-05 11:41:00,30.0,28.0,-100.00,SSW,210,11.0,16.0,90,0.31,,,-99.99,,2013-03-05 17:41:00,
2013-03-05 11:52:00,31.0,27.0,-100.00,WSW,240,11.0,21.0,88,1.37,,,-99.99,,2013-03-05 17:52:00,
2013-03-05 12:01:00,31.0,27.0,-100.00,WSW,240,11.0,21.0,88,1.37,,,-99.99,,2013-03-05 18:01:00,
2013-03-05 12:11:00,30.0,27.0,-100.00,WSW,245,13.0,24.0,88,0.50,,,-99.99,,2013-03-05 18:11:00,
2013-03-05 12:21:00,29.0,27.0,-100.00,WSW,245,18.0,26.0,89,0.14,,,-99.99,,2013-03-05 18:21:00,
2013-03-05 12:32:00,30.0,27.0,-100.00,NNW,345,13.0,27.0,87,1.56,,,-99.99,,2013-03-05 18:32:00,
2013-03-05 12:42:00,30.0,25.0,-100.00,WSW,240,16.0,26.0,80,1.08,,,-99.99,,2013-03-05 18:42:00,
2013-03-05 12:52:00,30.0,24.0,-100.00,SW,220,14.0,26.0,76,0.00,,,-99.99,,2013-03-05 18:52:00,
2013-03-05 13:01:00,30.0,24.0,-100.00,SW,220,14.0,26.0,76,0.00,,,-99.99,,2013-03-05 19:01:00,
2013-03-05 13:11:00,30.0,23.0,-100.00,SW,235,16.0,23.0,74,0.00,,,-99.99,,2013-03-05 19:11:00,
2013-03-05 13:21:00,30.0,23.0,-100.00,SW,220,17.0,28.0,73,0.00,,,-99.99,,2013-03-05 19:21:00,
2013-03-05 13:32:00,32.0,24.0,-100.00,SW,220,14.0,21.0,71,0.00,,,-99.99,,2013-03-05 19:32:00,
2013-03-05 13:42:00,32.0,23.0,-100.00,WSW,240,16.0,26.0,68,0.00,,,-99.99,,2013-03-05 19:42:00,
2013-03-05 13:51:00,31.0,24.0,-100.00,SW,225,15.0,24.0,73,1.88,,,-99.99,,2013-03-05 19:51:00,
2013-03-05 14:01:00,31.0,24.0,-100.00,SW,225,15.0,24.0,73,1.88,,,-99.99,,2013-03-05 20:01:00,
2013-03-05 14:11:00,31.0,24.0,-100.00,WSW,245,19.0,29.0,74,1.84,,,-99.99,,2013-03-05 20:11:00,
2013-03-05 14:21:00,31.0,24.0,-100.00,SW,230,19.0,29.0,76,1.43,,,-99.99,,2013-03-05 20:21:00,
2013-03-05 14:32:00,31.0,25.0,-100.00,SSW,205,19.0,30.0,79,0.13,,,-99.99,,2013-03-05 20:32:00,
2013-03-05 14:41:00,30.0,26.0,-100.00,SW,230,16.0,24.0,85,0.33,,,-99.99,,2013-03-05 20:41:00,
2013-03-05 14:52:00,31.0,26.0,-100.00,WSW,240,21.0,32.0,81,0.00,,,-99.99,,2013-03-05 20:52:00,
2013-03-05 15:02:00,31.0,26.0,-100.00,WSW,240,21.0,32.0,81,0.00,,,-99.99,,2013-03-05 21:02:00,
2013-03-05 15:11:00,30.0,25.0,-100.00,SW,215,23.0,33.0,82,0.00,,,-99.99,,2013-03-05 21:11:00,
2013-03-05 15:21:00,30.0,26.0,-100.00,SW,220,17.0,32.0,84,0.00,,,-99.99,,2013-03-05 21:21:00,
2013-03-05 15:32:00,30.0,25.0,-100.00,West,265,23.0,32.0,80,0.00,,,-99.99,,2013-03-05 21:32:00,
2013-03-05 15:41:00,30.0,25.0,-100.00,West,265,23.0,32.0,80,0.00,,,-99.99,,2013-03-05 21:41:00,
2013-03-05 15:52:00,30.0,24.0,-100.00,WSW,240,18.0,32.0,78,0.00,,,-99.99,,2013-03-05 21:52:00,
2013-03-05 16:01:00,30.0,24.0,-100.00,WSW,240,18.0,32.0,78,0.00,,,-99.99,,2013-03-05 22:01:00,
2013-03-05 16:11:00,30.0,24.0,-100.00,SSE,160,16.0,26.0,79,0.00,,,-99.99,,2013-03-05 22:11:00,
2013-03-05 16:21:00,30.0,24.0,-100.00,SSW,205,18.0,29.0,78,0.00,,,-99.99,,2013-03-05 22:21:00,
2013-03-05 16:32:00,30.0,24.0,-100.00,SW,225,21.0,32.0,76,0.00,,,-99.99,,2013-03-05 22:32:00,
2013-03-05 16:41:00,30.0,24.0,-100.00,SW,225,21.0,32.0,76,0.00,,,-99.99,,2013-03-05 22:41:00,
2013-03-05 16:52:00,30.0,24.0,-100.00,SSW,205,17.0,27.0,76,0.00,,,-99.99,,2013-03-05 22:52:00,
2013-03-05 17:01:00,30.0,24.0,-100.00,SSW,205,17.0,27.0,76,0.00,,,-99.99,,2013-03-05 23:01:00,
2013-03-05 17:11:00,30.0,24.0,-100.00,SW,230,19.0,24.0,78,0.00,,,-99.99,,2013-03-05 23:11:00,
2013-03-05 17:21:00,30.0,24.0,-100.00,West,275,15.0,24.0,77,0.00,,,-99.99,,2013-03-05 23:21:00,
2013-03-05 17:32:00,30.0,24.0,-100.00,SSW,210,16.0,29.0,80,0.00,,,-99.99,,2013-03-05 23:32:00,
2013-03-05 17:41:00,30.0,24.0,-100.00,SSW,210,16.0,29.0,80,0.00,,,-99.99,,2013-03-05 23:41:00,
2013-03-05 17:52:00,29.0,25.0,-100.00,NNW,345,15.0,26.0,84,0.00,,,-99.99,,2013-03-05 23:52:00,
2013-03-05 18:01:00,29.0,25.0,-100.00,NNW,345,15.0,26.0,84,0.00,,,-99.99,,2013-03-06 00:01:00,
2013-03-05 18:11:00,29.0,25.0,-100.00,ESE,105,17.0,24.0,83,0.00,,,-99.99,,2013-03-06 00:11:00,
2013-03-05 18:21:00,29.0,25.0,-100.00,SW,220,16.0,24.0,85,0.00,,,-99.99,,2013-03-06 00:21:00,
2013-03-05 18:32:00,28.0,25.0,-100.00,SSW,210,19.0,26.0,88,0.16,,,-99.99,,2013-03-06 00:32:00,
2013-03-05 18:41:00,28.0,25.0,-100.00,SSW,210,19.0,26.0,88,0.16,,,-99.99,,2013-03-06 00:41:00,
2013-03-05 18:51:00,28.0,25.0,-100.00,SSW,205,16.0,24.0,88,0.28,,,-99.99,,2013-03-06 00:51:00,
2013-03-05 19:01:00,28.0,25.0,-100.00,SSW,205,16.0,24.0,88,0.28,,,-99.99,,2013-03-06 01:01:00,
2013-03-05 19:11:00,28.0,25.0,-100.00,SW,220,19.0,30.0,88,0.20,,,-99.99,,2013-03-06 01:11:00,
2013-03-05 19:21:00,28.0,25.0,-100.00,South,170,16.0,27.0,89,0.30,,,-99.99,,2013-03-06 01:21:00,
2013-03-05 19:32:00,28.0,25.0,-100.00,SSW,200,17.0,26.0,90,0.13,,,-99.99,,2013-03-06 01:32:00,
2013-03-05 19:41:00,28.0,25.0,-100.00,SSW,200,17.0,28.0,89,0.00,,,-99.99,,2013-03-06 01:41:00,
2013-03-05 19:51:00,28.0,24.0,-100.00,South,180,17.0,26.0,87,0.00,,,-99.99,,2013-03-06 01:51:00,
2013-03-05 20:01:00,28.0,24.0,-100.00,South,180,17.0,26.0,87,0.00,,,-99.99,,2013-03-06 02:01:00,
2013-03-05 20:11:00,28.0,24.0,-100.00,South,190,14.0,27.0,86,0.00,,,-99.99,,2013-03-06 02:11:00,
2013-03-05 20:21:00,27.0,24.0,-100.00,NNW,335,15.0,26.0,86,0.00,,,-99.99,,2013-03-06 02:21:00,
2013-03-05 20:32:00,27.0,24.0,-100.00,SW,235,14.0,21.0,87,0.00,,,-99.99,,2013-03-06 02:32:00,
2013-03-05 20:41:00,27.0,24.0,-100.00,SW,235,14.0,21.0,87,0.00,,,-99.99,,2013-03-06 02:41:00,
2013-03-05 20:52:00,27.0,24.0,-100.00,SW,215,15.0,21.0,89,0.00,,,-99.99,,2013-03-06 02:52:00,
2013-03-05 21:01:00,27.0,24.0,-100.00,SW,215,15.0,21.0,89,0.00,,,-99.99,,2013-03-06 03:01:00,
2013-03-05 21:11:00,27.0,24.0,-100.00,NNW,335,16.0,22.0,88,0.00,,,-99.99,,2013-03-06 03:11:00,
2013-03-05 21:21:00,27.0,24.0,-100.00,WSW,240,12.0,23.0,88,0.00,,,-99.99,,2013-03-06 03:21:00,
2013-03-05 21:32:00,27.0,24.0,-100.00,WSW,250,13.0,21.0,87,0.04,,,-99.99,,2013-03-06 03:32:00,
2013-03-05 21:41:00,27.0,24.0,-100.00,WSW,250,13.0,21.0,87,0.04,,,-99.99,,2013-03-06 03:41:00,
2013-03-05 21:52:00,27.0,23.0,-100.00,West,270,10.0,28.0,85,0.00,,,-99.99,,2013-03-06 03:52:00,
2013-03-05 22:02:00,27.0,23.0,-100.00,West,270,10.0,28.0,85,0.00,,,-99.99,,2013-03-06 04:02:00,
2013-03-05 22:11:00,27.0,23.0,-100.00,SE,145,12.0,19.0,86,0.00,,,-99.99,,2013-03-06 04:11:00,
2013-03-05 22:21:00,27.0,23.0,-100.00,ESE,120,10.0,16.0,86,0.25,,,-99.99,,2013-03-06 04:21:00,
2013-03-05 22:32:00,26.0,23.0,-100.00,ENE,65,11.0,20.0,86,0.00,,,-99.99,,2013-03-06 04:32:00,
2013-03-05 22:41:00,26.0,23.0,-100.00,ENE,65,11.0,20.0,86,0.00,,,-99.99,,2013-03-06 04:41:00,
2013-03-05 22:51:00,26.0,23.0,-100.00,SSE,155,12.0,19.0,86,0.00,,,-99.99,,2013-03-06 04:51:00,
2013-03-05 23:01:00,26.0,23.0,-100.00,SSE,155,12.0,19.0,86,0.00,,,-99.99,,2013-03-06 05:01:00,
2013-03-05 23:11:00,26.0,23.0,-100.00,SSE,155,11.0,22.0,85,0.00,,,-99.99,,2013-03-06 05:11:00,
2013-03-05 23:22:00,26.0,22.0,-100.00,South,175,16.0,21.0,84,0.00,,,-99.99,,2013-03-06 05:22:00,
2013-03-05 23:32:00,26.0,22.0,-100.00,South,170,16.0,21.0,83,0.00,,,-99.99,,2013-03-06 05:32:00,
2013-03-05 23:42:00,26.0,22.0,-100.00,South,170,16.0,21.0,83,0.00,,,-99.99,,2013-03-06 05:42:00,
2013-03-05 23:52:00,26.0,22.0,-100.00,SSE,155,10.0,22.0,83,0.00,,,-99.99,,2013-03-06 05:52:00,